TimeCDT,TemperatureF,Dew PointF,Humidity,Sea Level PressureIn,VisibilityMPH,Wind Direction,Wind SpeedMPH,Gust SpeedMPH,PrecipitationIn,Events,Conditions,WindDirDegrees,DateUTC
12:53 AM,15.1,10.0,80,30.13,10.0,ESE,5.8,-,N/A,,Clear,110,2013-03-11 05:53:00
1:53 AM,17.1,9.0,71,30.09,10.0,SSE,3.5,-,N/A,,Clear,160,2013-03-11 06:53:00
2:53 AM,12.0,7.0,80,30.08,10.0,WNW,3.5,-,N/A,,Clear,300,2013-03-11 07:53:00
3:53 AM,15.1,10.0,80,30.04,10.0,Calm,Calm,-,N/A,,Clear,0,2013-03-11 08:53:00
5:53 AM,17.1,12.0,81,30.02,10.0,Calm,Calm,-,N/A,,Clear,0,2013-03-11 10:53:00
7:53 AM,15.1,10.9,84,29.98,10.0,ESE,5.8,-,N/A,,Clear,110,2013-03-11 12:53:00
8:53 AM,16.0,12.0,84,29.95,10.0,SE,8.1,-,N/A,,Mostly Cloudy,140,2013-03-11 13:53:00
9:53 AM,19.0,14.0,81,29.95,10.0,SSE,5.8,-,N/A,,Clear,150,2013-03-11 14:53:00
10:53 AM,24.1,16.0,71,29.93,10.0,South,5.8,-,N/A,,Clear,170,2013-03-11 15:53:00
11:53 AM,32.0,17.1,54,29.90,10.0,West,6.9,-,N/A,,Clear,260,2013-03-11 16:53:00
12:53 PM,44.1,21.0,40,29.87,10.0,WNW,18.4,23.0,N/A,,Clear,300,2013-03-11 17:53:00
1:53 PM,48.0,25.0,41,29.86,10.0,NW,24.2,33.4,N/A,,Clear,320,2013-03-11 18:53:00
2:53 PM,50.0,21.9,33,29.85,10.0,NW,31.1,41.4,N/A,,Clear,320,2013-03-11 19:53:00
3:53 PM,50.0,17.1,27,29.86,10.0,NNW,28.8,41.4,N/A,,Clear,340,2013-03-11 20:53:00
4:53 PM,48.0,14.0,26,29.89,10.0,NNW,27.6,38.0,N/A,,Clear,340,2013-03-11 21:53:00
5:53 PM,45.0,12.9,27,29.92,10.0,NNW,27.6,38.0,N/A,,Scattered Clouds,330,2013-03-11 22:53:00
6:53 PM,42.1,15.1,34,29.96,10.0,NW,24.2,29.9,N/A,,Clear,320,2013-03-11 23:53:00
7:53 PM,39.0,17.1,41,29.99,10.0,NNW,12.7,23.0,N/A,,Partly Cloudy,340,2013-03-12 00:53:00
8:53 PM,35.1,17.1,48,30.02,10.0,NW,13.8,-,N/A,,Clear,320,2013-03-12 01:53:00
9:53 PM,32.0,17.1,54,30.03,10.0,NW,11.5,-,N/A,,Clear,310,2013-03-12 02:53:00
10:53 PM,32.0,18.0,56,30.04,10.0,WNW,10.4,-,N/A,,Overcast,300,2013-03-12 03:53:00
11:53 PM,33.1,18.0,54,30.04,10.0,NW,21.9,29.9,N/A,,Scattered Clouds,310,2013-03-12 04:53:00